| time (UTC) | temp C | wind direction | speed KPH | gust KPH | rain 1hr cm | rain 24hr cm | rain mn cm | humidity % | barometer mb |
| 20260502090619 | 11 | 360 | 3.2 | 12.9 | 0.00 | 0.00 | 0.00 | 40 | 1019.2 |
| 20260502070627 | 12 | 360 | 9.7 | 17.7 | 0.00 | 0.00 | 0.00 | 36 | 1018.9 |
| 20260502065648 | 12 | 360 | 9.7 | 19.3 | 0.00 | 0.00 | 0.00 | 36 | 1018.9 |
| 20260502064619 | 13 | 360 | 4.8 | 12.9 | 0.00 | 0.00 | 0.00 | 35 | 1019.1 |
| 20260502063626 | 13 | 360 | 3.2 | 14.5 | 0.00 | 0.00 | 0.00 | 34 | 1018.9 |
| 20260502062614 | 13 | 360 | 8.0 | 20.9 | 0.00 | 0.00 | 0.00 | 33 | 1018.8 |
| 20260502061623 | 13 | 360 | 8.0 | 17.7 | 0.00 | 0.00 | 0.00 | 33 | 1018.7 |
| 20260502060622 | 13 | 360 | 8.0 | 14.5 | 0.00 | 0.00 | 0.00 | 33 | 1018.8 |
| 20260502055627 | 13 | 360 | 8.0 | 12.9 | 0.00 | 0.00 | 0.00 | 34 | 1018.7 |
| 20260502054616 | 13 | 360 | 4.8 | 14.5 | 0.00 | 0.00 | 0.00 | 35 | 1018.8 |
| 20260502053626 | 13 | 360 | 6.4 | 16.1 | 0.00 | 0.00 | 0.00 | 35 | 1018.7 |
| 20260502052620 | 13 | 360 | 4.8 | 9.7 | 0.00 | 0.00 | 0.00 | 36 | 1018.7 |
| 20260502051630 | 13 | 360 | 1.6 | 6.4 | 0.00 | 0.00 | 0.00 | 38 | 1018.6 |
| 20260502050620 | 13 | 360 | 0.0 | 3.2 | 0.00 | 0.00 | 0.00 | 38 | 1018.6 |
| 20260502045622 | 13 | 360 | 1.6 | 6.4 | 0.00 | 0.00 | 0.00 | 38 | 1018.6 |
| 20260502044615 | 13 | 360 | 1.6 | 6.4 | 0.00 | 0.00 | 0.00 | 39 | 1018.6 |
| 20260502043624 | 13 | 360 | 1.6 | 4.8 | 0.00 | 0.00 | 0.00 | 38 | 1018.6 |
| 20260502042613 | 13 | 360 | 1.6 | 6.4 | 0.00 | 0.00 | 0.00 | 37 | 1018.4 |
| 20260502041645 | 14 | 360 | 1.6 | 4.8 | 0.00 | 0.00 | 0.00 | 38 | 1018.4 |
| 20260502040619 | 14 | 360 | 1.6 | 3.2 | 0.00 | 0.00 | 0.00 | 39 | 1018.3 |
| 20260502035622 | 15 | 360 | 1.6 | 4.8 | 0.00 | 0.00 | 0.00 | 37 | 1018.3 |
| 20260502034612 | 15 | 360 | 3.2 | 6.4 | 0.00 | 0.00 | 0.00 | 37 | 1018.2 |
| 20260502033623 | 16 | 360 | 1.6 | 4.8 | 0.00 | 0.00 | 0.00 | 37 | 1018.1 |
| 20260502032617 | 16 | 360 | 1.6 | 6.4 | 0.00 | 0.00 | 0.00 | 37 | 1018.0 |
| 20260502031624 | 16 | 360 | 0.0 | 6.4 | 0.00 | 0.00 | 0.00 | 35 | 1017.8 |
| 20260502030612 | 17 | 360 | 1.6 | 6.4 | 0.00 | 0.00 | 0.00 | 33 | 1017.6 |
| 20260502025612 | 17 | 360 | 0.0 | 1.6 | 0.00 | 0.00 | 0.00 | 28 | 1017.4 |
| 20260502024625 | 18 | 360 | 0.0 | 1.6 | 0.00 | 0.00 | 0.00 | 26 | 1017.3 |
| 20260502023630 | 18 | 360 | 1.6 | 4.8 | 0.00 | 0.00 | 0.00 | 26 | 1017.3 |
| 20260502022638 | 18 | 360 | 1.6 | 4.8 | 0.00 | 0.00 | 0.00 | 25 | 1017.2 |
| 20260502021625 | 18 | 267 | 1.6 | 6.4 | 0.00 | 0.00 | 0.00 | 24 | 1017.2 |
| 20260502020618 | 19 | 266 | 1.6 | 6.4 | 0.00 | 0.00 | 0.00 | 24 | 1017.1 |
| 20260502015618 | 19 | 272 | 3.2 | 8.0 | 0.00 | 0.00 | 0.00 | 23 | 1017.1 |
| 20260502014626 | 19 | 271 | 4.8 | 11.3 | 0.00 | 0.00 | 0.00 | 23 | 1017.0 |
| 20260502013615 | 20 | 277 | 6.4 | 12.9 | 0.00 | 0.00 | 0.00 | 23 | 1017.0 |
| 20260502012626 | 20 | 288 | 4.8 | 12.9 | 0.00 | 0.00 | 0.00 | 23 | 1016.9 |
| 20260502011614 | 20 | 261 | 8.0 | 11.3 | 0.00 | 0.00 | 0.00 | 22 | 1016.9 |
| 20260502010622 | 20 | 296 | 1.6 | 14.5 | 0.00 | 0.00 | 0.00 | 22 | 1016.9 |
| 20260502005624 | 20 | 269 | 11.3 | 16.1 | 0.00 | 0.00 | 0.00 | 22 | 1017.0 |
| 20260502004616 | 20 | 298 | 4.8 | 16.1 | 0.00 | 0.00 | 0.00 | 22 | 1017.0 |
| 20260502003621 | 20 | 296 | 4.8 | 17.7 | 0.00 | 0.00 | 0.00 | 22 | 1017.0 |
| 20260502002631 | 20 | 261 | 12.9 | 17.7 | 0.00 | 0.00 | 0.00 | 22 | 1017.0 |
| 20260502001621 | 20 | 271 | 4.8 | 16.1 | 0.00 | 0.00 | 0.00 | 22 | 1017.0 |
| 20260502000616 | 20 | 291 | 8.0 | 20.9 | 0.00 | 0.00 | 0.00 | 22 | 1017.0 |
| 20260501235616 | 20 | 291 | 14.5 | 22.5 | 0.00 | 0.00 | 0.00 | 22 | 1017.0 |
| 20260501234626 | 20 | 323 | 6.4 | 20.9 | 0.00 | 0.00 | 0.00 | 22 | 1017.0 |
| 20260501233617 | 20 | 259 | 9.7 | 24.1 | 0.00 | 0.00 | 0.00 | 22 | 1017.0 |
| 20260501232631 | 20 | 269 | 11.3 | 22.5 | 0.00 | 0.00 | 0.00 | 23 | 1017.1 |
| 20260501231618 | 20 | 263 | 14.5 | 20.9 | 0.00 | 0.00 | 0.00 | 22 | 1017.2 |
| 20260501230629 | 20 | 301 | 4.8 | 20.9 | 0.00 | 0.00 | 0.00 | 23 | 1017.3 |
| 20260501225651 | 19 | 271 | 11.3 | 20.9 | 0.00 | 0.00 | 0.00 | 24 | 1017.4 |
| 20260501224622 | 20 | 313 | 14.5 | 24.1 | 0.00 | 0.00 | 0.00 | 23 | 1017.5 |
| 20260501223648 | 20 | 290 | 9.7 | 20.9 | 0.00 | 0.00 | 0.00 | 22 | 1017.5 |
| 20260501222614 | 20 | 320 | 6.4 | 16.1 | 0.00 | 0.00 | 0.00 | 22 | 1017.7 |
| 20260501221643 | 20 | 317 | 3.2 | 16.1 | 0.00 | 0.00 | 0.00 | 23 | 1017.9 |
| 20260501220616 | 20 | 28 | 4.8 | 17.7 | 0.00 | 0.00 | 0.00 | 22 | 1018.0 |
| 20260501215616 | 20 | 306 | 6.4 | 19.3 | 0.00 | 0.00 | 0.00 | 22 | 1018.1 |
| 20260501214624 | 20 | 323 | 4.8 | 22.5 | 0.00 | 0.00 | 0.00 | 22 | 1018.1 |
| 20260501213614 | 19 | 25 | 4.8 | 17.7 | 0.00 | 0.00 | 0.00 | 23 | 1018.2 |
| 20260501212626 | 19 | 273 | 8.0 | 19.3 | 0.00 | 0.00 | 0.00 | 22 | 1018.4 |
| 20260501211616 | 19 | 335 | 6.4 | 20.9 | 0.00 | 0.00 | 0.00 | 23 | 1018.3 |
| 20260501210626 | 19 | 292 | 4.8 | 22.5 | 0.00 | 0.00 | 0.00 | 22 | 1018.5 |
| 20260501205625 | 19 | 310 | 11.3 | 20.9 | 0.00 | 0.00 | 0.00 | 21 | 1018.5 |
| 20260501204618 | 19 | 55 | 11.3 | 20.9 | 0.00 | 0.00 | 0.00 | 22 | 1018.4 |
| 20260501203629 | 18 | 332 | 6.4 | 20.9 | 0.00 | 0.00 | 0.00 | 22 | 1018.5 |
| 20260501202619 | 18 | 304 | 9.7 | 19.3 | 0.00 | 0.00 | 0.00 | 22 | 1018.4 |
| 20260501201648 | 18 | 282 | 9.7 | 20.9 | 0.00 | 0.00 | 0.00 | 22 | 1018.5 |
| 20260501200621 | 18 | 298 | 14.5 | 24.1 | 0.00 | 0.00 | 0.00 | 22 | 1018.5 |
| 20260501195620 | 18 | 300 | 8.0 | 19.3 | 0.00 | 0.00 | 0.00 | 22 | 1018.5 |
| 20260501194628 | 18 | 313 | 11.3 | 19.3 | 0.00 | 0.00 | 0.00 | 22 | 1018.6 |
| 20260501193616 | 18 | 327 | 3.2 | 12.9 | 0.00 | 0.00 | 0.00 | 21 | 1018.7 |
| 20260501192644 | 18 | 271 | 3.2 | 11.3 | 0.00 | 0.00 | 0.00 | 20 | 1018.8 |
| 20260501191619 | 18 | 96 | 11.3 | 19.3 | 0.00 | 0.00 | 0.00 | 14 | 1018.9 |
| 20260501190629 | 18 | 44 | 6.4 | 16.1 | 0.00 | 0.00 | 0.00 | 17 | 1018.9 |
| 20260501185630 | 17 | 88 | 6.4 | 17.7 | 0.00 | 0.00 | 0.00 | 19 | 1019.1 |
| 20260501184617 | 17 | 268 | 4.8 | 11.3 | 0.00 | 0.00 | 0.00 | 21 | 1019.2 |
| 20260501183612 | 17 | 281 | 4.8 | 11.3 | 0.00 | 0.00 | 0.00 | 21 | 1019.3 |
| 20260501182622 | 17 | 47 | 1.6 | 14.5 | 0.00 | 0.00 | 0.00 | 21 | 1019.5 |
| 20260501181652 | 17 | 86 | 4.8 | 17.7 | 0.00 | 0.00 | 0.00 | 21 | 1019.5 |
| 20260501180627 | 17 | 93 | 14.5 | 20.9 | 0.00 | 0.00 | 0.00 | 21 | 1019.6 |
| 20260501175612 | 16 | 76 | 14.5 | 24.1 | 0.00 | 0.00 | 0.00 | 22 | 1019.7 |
| 20260501174623 | 16 | 70 | 14.5 | 24.1 | 0.00 | 0.00 | 0.00 | 20 | 1019.7 |
| 20260501173613 | 16 | 27 | 14.5 | 25.7 | 0.00 | 0.00 | 0.00 | 21 | 1019.8 |
| 20260501172623 | 16 | 91 | 11.3 | 25.7 | 0.00 | 0.00 | 0.00 | 21 | 1019.8 |
| 20260501171617 | 16 | 49 | 11.3 | 17.7 | 0.00 | 0.00 | 0.00 | 23 | 1019.8 |
| 20260501170626 | 16 | 70 | 11.3 | 20.9 | 0.00 | 0.00 | 0.00 | 23 | 1020.0 |
| 20260501165625 | 15 | 64 | 8.0 | 27.4 | 0.00 | 0.00 | 0.00 | 25 | 1019.9 |
| 20260501164615 | 15 | 68 | 12.9 | 29.0 | 0.00 | 0.00 | 0.00 | 26 | 1020.1 |
| 20260501163627 | 15 | 66 | 14.5 | 29.0 | 0.00 | 0.00 | 0.00 | 25 | 1020.0 |
| 20260501162615 | 15 | 59 | 14.5 | 29.0 | 0.00 | 0.00 | 0.00 | 25 | 1020.1 |